Voltar ao catálogo

STARLINK-4479

AtivoComunicaçõesVLEO
NORAD 53415·PAYLOAD·🇺🇸 United States

Lançado Aug 10, 2022 de Cape Canaveral Space Force Station

Loading…

Próximas Passagens (próximas 24 horas)

TLE

AtualizadoSource: CelesTrak SupGP

Época: Sep 14, 2026, 21:09 UTC

1 53415C 22097AD  26257.88173611 -.00052386  00000+0 -16848-2 0  2576
2 53415  53.1601 332.9745 0001330  78.9193 326.0339 15.31724855    11

Acompanhe STARLINK-4479 em tempo real com AllMySat

Download on the App Store